Regional Weather Roundup
Issued by NWS

Home | Current Version | Previous Version | Graphics & Text | Print | Product List | Glossary On
Versions: 1 2 3 4 5 6 7 8 9 10 11 12 13 14 15 16 17 18 19 20 21 22 23 24 25 26 27 28 29 30 31 32 33 34 35 36 37 38 39 40 41 42 43 44 45 46 47 48 49 50
000
ASUS44 KMEG 021510
RWRTN
TENNESSEE HOURLY STATE WEATHER ROUNDUP
NATIONAL WEATHER SERVICE MEMPHIS TN
1000 AM CDT TUE SEP 02 2014

TNZ002-004-019-021-049-052-054-088>092-021600-
WEST TENNESSEE

CITY           SKY/WX    TMP DP  RH WIND       PRES   REMARKS
MEMPHIS INTL   CLOUDY    81  74  79 W8        30.07R
NWS MEMPHIS      N/A     80 N/A N/A MISG        N/A
JACKSON        CLOUDY    82  75  79 VRB6      30.05R
DYERSBURG      CLOUDY    79  66  65 W9        30.04F
UNION CITY     PTSUNNY   79  75  89 SW10      30.01S
PARIS          MOSUNNY   81  73  78 SW14      30.03S
HUNTINGDON     PTSUNNY   81  73  76 SW9       30.03F
LEXINGTON      MOSUNNY   82  73  74 SW5       30.06R
SAVANNAH       MOSUNNY   82  75  78 SW8       30.08R
$$

TNZ008-025-027-028-033-062-065-066-021600-
NORTH MIDDLE TENNESSEE

CITY           SKY/WX    TMP DP  RH WIND       PRES   REMARKS
NASHVILLE      MOSUNNY   85  72  65 SW9G17    30.05F HX  91
DICKSON        SUNNY     81  72  74 SW10      30.06R
PORTLAND       MOSUNNY   82  72  69 SW10      30.03S
CLARKSVILLE    MOSUNNY   82  74  76 SW9       30.02S
LEBANON        SUNNY     83  72  69 S9        30.03F
SMYRNA         SUNNY     84  74  72 SW6       30.05F HX  91
MURFREESBORO   MOSUNNY   83  71  66 SW7       30.06S
COOKEVILLE     SUNNY     84  73  70 SW7       30.09F HX  91
LIVINGSTON     SUNNY     80  70  71 SW10      30.09
GALLATIN       SUNNY     84  75  74 SW3       30.05F HX  91
CROSSVILLE     PTSUNNY   80  70  71 W8        30.15S
$$

TNZ061-075-076-078-094-096-097-021600-
SOUTH MIDDLE TENNESSEE

CITY           SKY/WX    TMP DP  RH WIND       PRES   REMARKS
LEWISBURG      SUNNY     85  72  65 SW6       30.07S HX  91
FAYETTEVILLE   MOSUNNY   81  72  74 SW7       30.11S
TULLAHOMA      SUNNY     82  72  69 SW8       30.12S
WINCHESTER     SUNNY     82  72  69 CALM      30.11F
MCMINNVILLE    SUNNY     84  75  74 S8        30.10F HX  92
COLUMBIA         N/A     84  75  74 S8        30.05S HX  92
SHELBYVILLE    SUNNY     84  75  74 SW7       30.09F HX  92
$$

TNZ017-018-042-046-047-021600-
NORTHEAST TENNESSEE

CITY           SKY/WX    TMP DP  RH WIND       PRES   REMARKS
TRI CITIES     PTSUNNY   79  67  66 CALM      30.14S
ELIZABETHTON   PTSUNNY   77  68  73 CALM      30.15R
$$

TNZ012-013-036-069-073-074-021600-
CENTRAL EAST TENNESSEE

CITY           SKY/WX    TMP DP  RH WIND       PRES   REMARKS
KNOXVILLE      MOSUNNY   82  71  69 SW9       30.10S
OAK RIDGE      SUNNY     82  71  69 VRB3      30.12S
GATLINBURG     SUNNY     82  70  65 CALM      30.10F
MORRISTOWN     SUNNY     82  72  69 SW13      30.13S
$$

TNZ083-085-099-021600-
SOUTHEAST TENNESSEE

CITY           SKY/WX    TMP DP  RH WIND       PRES   REMARKS
CHATTANOOGA    MOSUNNY   85  70  60 W9        30.11S
$$

SKY/WX REPORTED AS FAIR MEANS FEW OR NO CLOUDS BELOW
12 THOUSAND FEET.




USA.gov is the U.S. government's official web portal to all federal, state and local government web resources and services.